| time (UTC) | temp C | wind direction | speed KPH | gust KPH | rain 1hr cm | rain 24hr cm | rain mn cm | humidity % | barometer mb |
| 20260510071830 | 9 | 62 | 0.0 | 1.6 | 0.00 | 0.84 | 0.00 | 87 | 1009.8 |
| 20260510071333 | 9 | 62 | 0.0 | 1.6 | 0.00 | 0.84 | 0.00 | 88 | 1009.6 |
| 20260510070826 | 10 | 62 | 0.0 | 3.2 | 0.00 | 0.84 | 0.00 | 88 | 1009.6 |
| 20260510070330 | 10 | 62 | 0.0 | 4.8 | 0.00 | 0.84 | 0.00 | 88 | 1009.6 |
| 20260510065819 | 10 | 61 | 1.6 | 6.4 | 0.00 | 0.84 | 0.00 | 88 | 1009.6 |
| 20260510065324 | 10 | 333 | 0.0 | 6.4 | 0.00 | 0.84 | 0.00 | 89 | 1009.5 |
| 20260510064824 | 10 | 317 | 1.6 | 4.8 | 0.00 | 0.84 | 0.00 | 89 | 1009.5 |
| 20260510064327 | 10 | 317 | 1.6 | 4.8 | 0.00 | 0.84 | 0.00 | 89 | 1009.5 |
| 20260510063820 | 10 | 310 | 1.6 | 4.8 | 0.00 | 0.84 | 0.00 | 90 | 1009.5 |
| 20260510063340 | 11 | 217 | 0.0 | 3.2 | 0.00 | 0.84 | 0.00 | 90 | 1009.4 |
| 20260510062831 | 11 | 216 | 1.6 | 3.2 | 0.00 | 0.84 | 0.00 | 90 | 1009.4 |
| 20260510062315 | 11 | 216 | 0.0 | 3.2 | 0.00 | 0.84 | 0.00 | 90 | 1009.2 |
| 20260510061833 | 11 | 216 | 1.6 | 3.2 | 0.00 | 0.84 | 0.00 | 90 | 1009.2 |
| 20260510061317 | 11 | 216 | 0.0 | 3.2 | 0.00 | 0.84 | 0.00 | 90 | 1009.1 |
| 20260510060833 | 11 | 216 | 1.6 | 3.2 | 0.00 | 0.84 | 0.00 | 90 | 1008.9 |
| 20260510060316 | 11 | 216 | 0.0 | 3.2 | 0.00 | 0.84 | 0.00 | 89 | 1008.7 |
| 20260510055830 | 11 | 216 | 0.0 | 3.2 | 0.00 | 0.84 | 0.00 | 89 | 1008.7 |
| 20260510055314 | 11 | 216 | 0.0 | 4.8 | 0.00 | 0.84 | 0.00 | 89 | 1008.7 |
| 20260510054814 | 11 | 216 | 0.0 | 4.8 | 0.00 | 0.84 | 0.00 | 88 | 1008.7 |
| 20260510054318 | 11 | 216 | 1.6 | 6.4 | 0.00 | 0.84 | 0.00 | 88 | 1008.7 |
| 20260510053835 | 11 | 216 | 4.8 | 11.3 | 0.00 | 0.84 | 0.00 | 87 | 1008.8 |
| 20260510053317 | 11 | 234 | 4.8 | 17.7 | 0.00 | 0.84 | 0.00 | 86 | 1008.7 |
| 20260510052835 | 12 | 240 | 8.0 | 17.7 | 0.00 | 0.84 | 0.00 | 85 | 1008.8 |
| 20260510052336 | 12 | 240 | 6.4 | 12.9 | 0.00 | 0.84 | 0.00 | 83 | 1008.8 |
| 20260510051829 | 13 | 231 | 3.2 | 16.1 | 0.00 | 0.84 | 0.00 | 83 | 1008.6 |
| 20260510051332 | 13 | 304 | 3.2 | 12.9 | 0.00 | 0.84 | 0.00 | 83 | 1008.5 |
| 20260510050846 | 13 | 251 | 4.8 | 16.1 | 0.00 | 0.84 | 0.00 | 83 | 1008.4 |
| 20260510050324 | 13 | 246 | 9.7 | 16.1 | 0.00 | 0.84 | 0.00 | 84 | 1008.2 |
| 20260510045813 | 12 | 232 | 4.8 | 11.3 | 0.00 | 0.84 | 0.00 | 84 | 1008.0 |
| 20260510045337 | 12 | 194 | 4.8 | 8.0 | 0.00 | 0.84 | 0.00 | 84 | 1007.7 |
| 20260510044815 | 12 | 217 | 1.6 | 8.0 | 0.00 | 0.84 | 0.00 | 84 | 1007.5 |
| 20260510044318 | 12 | 219 | 3.2 | 9.7 | 0.00 | 0.84 | 0.00 | 84 | 1007.2 |
| 20260510043854 | 12 | 195 | 3.2 | 8.0 | 0.00 | 0.84 | 0.00 | 83 | 1007.0 |
| 20260510043316 | 12 | 200 | 1.6 | 9.7 | 0.00 | 0.84 | 0.00 | 83 | 1006.8 |
| 20260510042834 | 12 | 175 | 3.2 | 9.7 | 0.00 | 0.84 | 0.00 | 83 | 1006.9 |
| 20260510042316 | 12 | 188 | 3.2 | 8.0 | 0.00 | 0.84 | 0.00 | 83 | 1006.9 |
| 20260510041836 | 12 | 171 | 1.6 | 9.7 | 0.00 | 0.84 | 0.00 | 83 | 1006.9 |
| 20260510041321 | 13 | 246 | 3.2 | 17.7 | 0.00 | 0.84 | 0.00 | 83 | 1007.0 |
| 20260510040833 | 13 | 178 | 8.0 | 17.7 | 0.00 | 0.84 | 0.00 | 83 | 1007.0 |
| 20260510040314 | 13 | 120 | 4.8 | 16.1 | 0.00 | 0.84 | 0.00 | 83 | 1006.7 |
| 20260510035823 | 13 | 178 | 4.8 | 9.7 | 0.00 | 0.84 | 0.84 | 83 | 1006.6 |
| 20260510035328 | 13 | 154 | 4.8 | 11.3 | 0.00 | 0.84 | 0.84 | 83 | 1006.4 |
| 20260510034819 | 13 | 189 | 4.8 | 16.1 | 0.00 | 0.84 | 0.84 | 83 | 1006.3 |
| 20260510034323 | 13 | 174 | 6.4 | 19.3 | 0.00 | 0.84 | 0.84 | 83 | 1006.5 |
| 20260510033817 | 13 | 137 | 6.4 | 19.3 | 0.00 | 0.84 | 0.84 | 83 | 1006.5 |
| 20260510033319 | 13 | 175 | 6.4 | 17.7 | 0.00 | 0.84 | 0.84 | 83 | 1006.5 |
| 20260510032817 | 13 | 195 | 8.0 | 17.7 | 0.00 | 0.84 | 0.84 | 83 | 1006.3 |
| 20260510032320 | 13 | 170 | 8.0 | 17.7 | 0.00 | 0.84 | 0.84 | 83 | 1006.4 |
| 20260510031830 | 13 | 189 | 4.8 | 14.5 | 0.00 | 0.84 | 0.84 | 82 | 1006.4 |
| 20260510031315 | 13 | 142 | 6.4 | 17.7 | 0.00 | 0.84 | 0.84 | 82 | 1006.3 |
| 20260510030828 | 13 | 140 | 6.4 | 16.1 | 0.00 | 0.84 | 0.84 | 82 | 1006.3 |
| 20260510030353 | 13 | 159 | 4.8 | 12.9 | 0.00 | 0.84 | 0.84 | 83 | 1006.4 |
| 20260510025823 | 13 | 184 | 3.2 | 14.5 | 0.00 | 0.84 | 0.84 | 83 | 1006.5 |
| 20260510025327 | 13 | 184 | 8.0 | 17.7 | 0.00 | 0.84 | 0.84 | 83 | 1006.6 |
| 20260510024822 | 13 | 198 | 9.7 | 17.7 | 0.00 | 0.84 | 0.84 | 83 | 1006.5 |
| 20260510024325 | 13 | 148 | 6.4 | 19.3 | 0.00 | 0.84 | 0.84 | 83 | 1006.5 |
| 20260510023819 | 13 | 149 | 8.0 | 19.3 | 0.00 | 0.84 | 0.84 | 83 | 1006.5 |
| 20260510023319 | 13 | 184 | 6.4 | 17.7 | 0.00 | 0.84 | 0.84 | 83 | 1006.4 |
| 20260510022838 | 13 | 177 | 6.4 | 16.1 | 0.00 | 0.84 | 0.84 | 83 | 1006.5 |
| 20260510022318 | 13 | 183 | 6.4 | 19.3 | 0.00 | 0.84 | 0.84 | 82 | 1006.4 |
| 20260510021853 | 13 | 180 | 9.7 | 19.3 | 0.00 | 0.84 | 0.84 | 82 | 1006.3 |
| 20260510021315 | 13 | 198 | 8.0 | 25.7 | 0.00 | 0.84 | 0.84 | 82 | 1006.3 |
| 20260510020834 | 13 | 174 | 9.7 | 25.7 | 0.00 | 0.84 | 0.84 | 83 | 1006.3 |
| 20260510020317 | 13 | 167 | 6.4 | 16.1 | 0.00 | 0.84 | 0.84 | 83 | 1006.1 |
| 20260510015815 | 13 | 165 | 4.8 | 17.7 | 0.00 | 0.84 | 0.84 | 83 | 1006.2 |
| 20260510015338 | 12 | 167 | 8.0 | 17.7 | 0.00 | 0.84 | 0.84 | 83 | 1006.2 |
| 20260510014901 | 12 | 157 | 8.0 | 17.7 | 0.00 | 0.84 | 0.84 | 83 | 1006.1 |
| 20260510014338 | 12 | 178 | 8.0 | 22.5 | 0.00 | 0.84 | 0.84 | 84 | 1006.0 |
| 20260510013853 | 12 | 182 | 6.4 | 17.7 | 0.00 | 0.84 | 0.84 | 84 | 1005.9 |
| 20260510013315 | 12 | 169 | 6.4 | 17.7 | 0.00 | 0.84 | 0.84 | 84 | 1005.8 |
| 20260510012814 | 12 | 175 | 6.4 | 17.7 | 0.00 | 0.84 | 0.84 | 85 | 1005.9 |
| 20260510012318 | 12 | 184 | 8.0 | 17.7 | 0.00 | 0.84 | 0.84 | 85 | 1005.7 |
| 20260510011814 | 12 | 146 | 6.4 | 25.7 | 0.00 | 0.84 | 0.84 | 86 | 1005.7 |
| 20260510011318 | 12 | 182 | 9.7 | 25.7 | 0.00 | 0.84 | 0.84 | 86 | 1005.7 |
| 20260510010816 | 12 | 154 | 4.8 | 19.3 | 0.00 | 0.84 | 0.84 | 87 | 1005.7 |
| 20260510010321 | 12 | 178 | 8.0 | 20.9 | 0.03 | 0.84 | 0.84 | 87 | 1005.6 |
| 20260510005832 | 12 | 142 | 6.4 | 19.3 | 0.03 | 0.84 | 0.84 | 87 | 1005.6 |
| 20260510005315 | 12 | 167 | 8.0 | 30.6 | 0.08 | 0.84 | 0.84 | 88 | 1005.6 |
| 20260510004833 | 12 | 165 | 9.7 | 30.6 | 0.13 | 0.84 | 0.84 | 89 | 1005.6 |
| 20260510004318 | 12 | 191 | 6.4 | 19.3 | 0.23 | 0.84 | 0.84 | 89 | 1005.5 |
| 20260510003815 | 11 | 182 | 6.4 | 20.9 | 0.33 | 0.84 | 0.84 | 90 | 1005.5 |
| 20260510003340 | 11 | 141 | 9.7 | 20.9 | 0.38 | 0.84 | 0.84 | 90 | 1005.3 |
| 20260510002832 | 11 | 148 | 6.4 | 24.1 | 0.46 | 0.84 | 0.84 | 91 | 1005.1 |
| 20260510002314 | 11 | 171 | 6.4 | 24.1 | 0.48 | 0.84 | 0.84 | 91 | 1005.0 |
| 20260510001834 | 11 | 154 | 6.4 | 19.3 | 0.53 | 0.84 | 0.84 | 92 | 1005.3 |
| 20260510001317 | 11 | 133 | 8.0 | 19.3 | 0.56 | 0.84 | 0.84 | 92 | 1005.4 |
| 20260510000815 | 11 | 196 | 4.8 | 14.5 | 0.64 | 0.84 | 0.84 | 92 | 1005.2 |
| 20260510000341 | 11 | 188 | 6.4 | 25.7 | 0.66 | 0.81 | 0.81 | 92 | 1005.1 |
| 20260509235853 | 11 | 147 | 9.7 | 25.7 | 0.69 | 0.81 | 0.81 | 92 | 1005.1 |
| 20260509235336 | 11 | 202 | 8.0 | 17.7 | 0.64 | 0.76 | 0.76 | 92 | 1006.0 |
| 20260509234821 | 11 | 198 | 6.4 | 16.1 | 0.64 | 0.71 | 0.71 | 92 | 1006.5 |
| 20260509234324 | 11 | 178 | 4.8 | 11.3 | 0.56 | 0.61 | 0.61 | 92 | 1006.7 |
| 20260509233839 | 11 | 187 | 3.2 | 8.0 | 0.48 | 0.51 | 0.51 | 92 | 1006.7 |
| 20260509233405 | 10 | 202 | 3.2 | 11.3 | 0.43 | 0.43 | 0.43 | 91 | 1006.7 |
| 20260509232832 | 10 | 196 | 4.8 | 12.9 | 0.38 | 0.38 | 0.38 | 91 | 1006.7 |
| 20260509232315 | 10 | 267 | 6.4 | 14.5 | 0.36 | 0.36 | 0.36 | 91 | 1006.7 |
| 20260509231832 | 10 | 229 | 4.8 | 24.1 | 0.30 | 0.30 | 0.30 | 90 | 1006.6 |
| 20260509231318 | 10 | 360 | 8.0 | 24.1 | 0.28 | 0.28 | 0.28 | 89 | 1006.6 |
| 20260509230857 | 10 | 327 | 4.8 | 12.9 | 0.20 | 0.20 | 0.20 | 89 | 1006.6 |
| 20260509230320 | 10 | 292 | 6.4 | 27.4 | 0.15 | 0.15 | 0.15 | 88 | 1006.6 |
| 20260509225832 | 11 | 316 | 9.7 | 27.4 | 0.13 | 0.13 | 0.13 | 87 | 1005.9 |
| 20260509225314 | 11 | 277 | 9.7 | 27.4 | 0.10 | 0.10 | 0.10 | 85 | 1005.5 |
| 20260509224824 | 12 | 355 | 11.3 | 27.4 | 0.08 | 0.08 | 0.08 | 81 | 1005.6 |
| 20260509224323 | 13 | 63 | 6.4 | 17.7 | 0.03 | 0.03 | 0.03 | 78 | 1005.6 |
| 20260509223835 | 15 | 321 | 6.4 | 16.1 | 0.03 | 0.03 | 0.03 | 74 | 1005.5 |
| 20260509223348 | 16 | 248 | 4.8 | 12.9 | 0.00 | 0.00 | 0.00 | 68 | 1004.7 |
| 20260509222824 | 17 | 231 | 3.2 | 11.3 | 0.00 | 0.00 | 0.00 | 63 | 1003.7 |
| 20260509222327 | 18 | 252 | 1.6 | 11.3 | 0.00 | 0.00 | 0.00 | 58 | 1003.4 |
| 20260509221822 | 18 | 224 | 1.6 | 11.3 | 0.00 | 0.00 | 0.00 | 57 | 1003.3 |
| 20260509221324 | 18 | 236 | 4.8 | 11.3 | 0.00 | 0.00 | 0.00 | 56 | 1003.3 |
| 20260509220816 | 19 | 217 | 1.6 | 11.3 | 0.00 | 0.00 | 0.00 | 56 | 1003.2 |
| 20260509220320 | 19 | 177 | 6.4 | 22.5 | 0.00 | 0.00 | 0.00 | 55 | 1003.0 |
| 20260509215821 | 19 | 163 | 6.4 | 22.5 | 0.00 | 0.00 | 0.00 | 55 | 1002.8 |
| 20260509215346 | 19 | 185 | 8.0 | 22.5 | 0.00 | 0.00 | 0.00 | 53 | 1002.9 |
| 20260509214821 | 19 | 223 | 8.0 | 22.5 | 0.00 | 0.00 | 0.00 | 52 | 1002.8 |
| 20260509214322 | 19 | 355 | 4.8 | 17.7 | 0.00 | 0.00 | 0.00 | 54 | 1002.7 |
| 20260509213835 | 20 | 215 | 8.0 | 25.7 | 0.00 | 0.00 | 0.00 | 52 | 1002.8 |
| 20260509213318 | 20 | 232 | 4.8 | 17.7 | 0.00 | 0.00 | 0.00 | 54 | 1002.8 |
| 20260509212832 | 20 | 217 | 4.8 | 19.3 | 0.00 | 0.00 | 0.00 | 53 | 1002.8 |
| 20260509212314 | 20 | 257 | 4.8 | 27.4 | 0.00 | 0.00 | 0.00 | 53 | 1002.9 |
| 20260509211829 | 20 | 211 | 4.8 | 19.3 | 0.00 | 0.00 | 0.00 | 54 | 1003.0 |
| 20260509211333 | 20 | 197 | 6.4 | 24.1 | 0.00 | 0.00 | 0.00 | 54 | 1002.8 |
| 20260509210828 | 20 | 227 | 8.0 | 24.1 | 0.00 | 0.00 | 0.00 | 53 | 1002.9 |
| 20260509210328 | 19 | 165 | 6.4 | 25.7 | 0.00 | 0.00 | 0.00 | 56 | 1002.9 |
| 20260509205839 | 20 | 181 | 8.0 | 25.7 | 0.00 | 0.00 | 0.00 | 55 | 1003.1 |
| 20260509205321 | 20 | 246 | 6.4 | 29.0 | 0.00 | 0.00 | 0.00 | 55 | 1003.1 |
| 20260509204817 | 20 | 170 | 11.3 | 29.0 | 0.00 | 0.00 | 0.00 | 53 | 1003.2 |
| 20260509204320 | 20 | 191 | 4.8 | 27.4 | 0.00 | 0.00 | 0.00 | 54 | 1003.2 |
| 20260509203839 | 20 | 142 | 11.3 | 20.9 | 0.00 | 0.00 | 0.00 | 55 | 1003.3 |
| 20260509203341 | 19 | 190 | 4.8 | 19.3 | 0.00 | 0.00 | 0.00 | 56 | 1003.2 |
| 20260509202815 | 19 | 166 | 8.0 | 22.5 | 0.00 | 0.00 | 0.00 | 55 | 1003.4 |
| 20260509202318 | 19 | 167 | 8.0 | 29.0 | 0.00 | 0.00 | 0.00 | 54 | 1003.6 |
| 20260509201814 | 20 | 182 | 6.4 | 29.0 | 0.00 | 0.00 | 0.00 | 53 | 1003.5 |
| 20260509201338 | 20 | 163 | 4.8 | 16.1 | 0.00 | 0.00 | 0.00 | 53 | 1003.7 |
| 20260509200834 | 20 | 261 | 6.4 | 16.1 | 0.00 | 0.00 | 0.00 | 53 | 1003.6 |
| 20260509200315 | 20 | 233 | 6.4 | 24.1 | 0.00 | 0.00 | 0.00 | 54 | 1003.7 |
| 20260509195834 | 20 | 149 | 9.7 | 24.1 | 0.00 | 0.00 | 0.00 | 53 | 1003.6 |
| 20260509195317 | 20 | 190 | 6.4 | 22.5 | 0.00 | 0.00 | 0.00 | 52 | 1003.6 |
| 20260509194815 | 20 | 190 | 9.7 | 22.5 | 0.00 | 0.00 | 0.00 | 52 | 1003.7 |
| 20260509194318 | 19 | 147 | 9.7 | 24.1 | 0.00 | 0.00 | 0.00 | 55 | 1003.8 |
| 20260509193836 | 19 | 190 | 9.7 | 24.1 | 0.00 | 0.00 | 0.00 | 56 | 1003.9 |
| 20260509193317 | 18 | 186 | 8.0 | 19.3 | 0.00 | 0.00 | 0.00 | 55 | 1004.2 |
| 20260509192813 | 18 | 273 | 4.8 | 19.3 | 0.00 | 0.00 | 0.00 | 57 | 1004.0 |
| 20260509192318 | 18 | 278 | 8.0 | 16.1 | 0.00 | 0.00 | 0.00 | 60 | 1004.2 |
| 20260509191817 | 18 | 245 | 4.8 | 22.5 | 0.00 | 0.00 | 0.00 | 63 | 1004.4 |
| 20260509191339 | 19 | 273 | 8.0 | 22.5 | 0.00 | 0.00 | 0.00 | 56 | 1004.5 |
| 20260509190832 | 19 | 254 | 8.0 | 22.5 | 0.00 | 0.00 | 0.00 | 56 | 1004.5 |
| 20260509190315 | 19 | 212 | 11.3 | 24.1 | 0.00 | 0.00 | 0.00 | 55 | 1004.2 |
| 20260509185837 | 19 | 196 | 8.0 | 24.1 | 0.00 | 0.00 | 0.00 | 58 | 1004.5 |
| 20260509185317 | 18 | 223 | 4.8 | 22.5 | 0.00 | 0.00 | 0.00 | 57 | 1004.6 |
| 20260509184830 | 18 | 159 | 8.0 | 19.3 | 0.00 | 0.00 | 0.00 | 58 | 1004.7 |
| 20260509184332 | 18 | 240 | 8.0 | 19.3 | 0.00 | 0.00 | 0.00 | 59 | 1004.8 |
| 20260509183821 | 18 | 189 | 4.8 | 16.1 | 0.00 | 0.00 | 0.00 | 60 | 1005.0 |
| 20260509183324 | 18 | 216 | 6.4 | 17.7 | 0.00 | 0.00 | 0.00 | 59 | 1005.0 |
| 20260509182818 | 18 | 186 | 6.4 | 20.9 | 0.00 | 0.00 | 0.00 | 62 | 1004.7 |
| 20260509182338 | 17 | 159 | 6.4 | 16.1 | 0.00 | 0.00 | 0.00 | 64 | 1004.7 |
| 20260509181814 | 17 | 178 | 8.0 | 17.7 | 0.00 | 0.00 | 0.00 | 67 | 1004.9 |
| 20260509181319 | 16 | 179 | 4.8 | 14.5 | 0.00 | 0.00 | 0.00 | 72 | 1005.1 |
| 20260509180818 | 16 | 227 | 4.8 | 14.5 | 0.00 | 0.00 | 0.00 | 72 | 1005.1 |
| 20260509180342 | 16 | 267 | 1.6 | 11.3 | 0.00 | 0.00 | 0.00 | 71 | 1005.1 |
| 20260509175818 | 16 | 269 | 3.2 | 22.5 | 0.00 | 0.00 | 0.00 | 71 | 1005.3 |
| 20260509175342 | 16 | 263 | 8.0 | 22.5 | 0.00 | 0.00 | 0.00 | 71 | 1005.1 |
| 20260509174814 | 16 | 221 | 6.4 | 12.9 | 0.00 | 0.00 | 0.00 | 70 | 1005.3 |
| 20260509174316 | 16 | 221 | 3.2 | 8.0 | 0.00 | 0.00 | 0.00 | 72 | 1005.2 |
| 20260509173835 | 16 | 252 | 3.2 | 8.0 | 0.00 | 0.00 | 0.00 | 72 | 1005.3 |
| 20260509173401 | 15 | 216 | 4.8 | 8.0 | 0.00 | 0.00 | 0.00 | 74 | 1005.2 |
| 20260509172832 | 15 | 197 | 3.2 | 8.0 | 0.00 | 0.00 | 0.00 | 74 | 1005.3 |
| 20260509172315 | 15 | 243 | 4.8 | 14.5 | 0.00 | 0.00 | 0.00 | 73 | 1005.5 |
| 20260509171831 | 16 | 241 | 6.4 | 14.5 | 0.00 | 0.00 | 0.00 | 73 | 1005.7 |
| 20260509171336 | 16 | 207 | 3.2 | 11.3 | 0.00 | 0.00 | 0.00 | 72 | 1005.8 |
| 20260509170829 | 16 | 237 | 1.6 | 11.3 | 0.00 | 0.00 | 0.00 | 71 | 1005.9 |
| 20260509170333 | 17 | 323 | 4.8 | 19.3 | 0.00 | 0.00 | 0.00 | 69 | 1005.9 |
| 20260509165827 | 16 | 231 | 11.3 | 19.3 | 0.00 | 0.00 | 0.00 | 69 | 1005.9 |
| 20260509165347 | 16 | 231 | 6.4 | 17.7 | 0.00 | 0.00 | 0.00 | 71 | 1005.7 |
| 20260509164816 | 16 | 205 | 6.4 | 16.1 | 0.00 | 0.00 | 0.00 | 72 | 1005.9 |
| 20260509164319 | 16 | 230 | 6.4 | 11.3 | 0.00 | 0.00 | 0.00 | 72 | 1006.0 |
| 20260509163830 | 16 | 273 | 4.8 | 12.9 | 0.00 | 0.00 | 0.00 | 73 | 1006.1 |
| 20260509163332 | 15 | 217 | 4.8 | 16.1 | 0.00 | 0.00 | 0.00 | 72 | 1006.3 |
| 20260509162825 | 15 | 168 | 4.8 | 16.1 | 0.00 | 0.00 | 0.00 | 73 | 1006.3 |
| 20260509162349 | 15 | 245 | 4.8 | 16.1 | 0.00 | 0.00 | 0.00 | 72 | 1006.3 |
| 20260509161822 | 15 | 256 | 4.8 | 16.1 | 0.00 | 0.00 | 0.00 | 74 | 1006.4 |
| 20260509161323 | 15 | 207 | 8.0 | 14.5 | 0.00 | 0.00 | 0.00 | 73 | 1006.4 |
| 20260509160819 | 15 | 209 | 3.2 | 14.5 | 0.00 | 0.00 | 0.00 | 74 | 1006.3 |
| 20260509160318 | 15 | 234 | 4.8 | 17.7 | 0.00 | 0.00 | 0.00 | 74 | 1006.4 |
| 20260509155815 | 15 | 207 | 4.8 | 17.7 | 0.00 | 0.00 | 0.00 | 74 | 1006.3 |
| 20260509155319 | 15 | 208 | 4.8 | 11.3 | 0.00 | 0.00 | 0.00 | 74 | 1006.4 |
| 20260509154854 | 15 | 224 | 4.8 | 11.3 | 0.00 | 0.00 | 0.00 | 72 | 1006.4 |
| 20260509154337 | 15 | 147 | 6.4 | 11.3 | 0.00 | 0.00 | 0.00 | 73 | 1006.4 |
| 20260509153828 | 15 | 225 | 4.8 | 14.5 | 0.00 | 0.00 | 0.00 | 74 | 1006.3 |
| 20260509153332 | 15 | 211 | 4.8 | 14.5 | 0.00 | 0.00 | 0.00 | 75 | 1006.4 |
| 20260509152825 | 15 | 124 | 3.2 | 12.9 | 0.00 | 0.00 | 0.00 | 76 | 1006.3 |
| 20260509152326 | 15 | 161 | 6.4 | 16.1 | 0.00 | 0.00 | 0.00 | 77 | 1006.4 |
| 20260509151821 | 14 | 186 | 8.0 | 19.3 | 0.00 | 0.00 | 0.00 | 77 | 1006.4 |
| 20260509151322 | 14 | 179 | 4.8 | 19.3 | 0.00 | 0.00 | 0.00 | 77 | 1006.4 |
| 20260509150817 | 15 | 215 | 6.4 | 16.1 | 0.00 | 0.00 | 0.00 | 76 | 1006.5 |
| 20260509150321 | 15 | 182 | 8.0 | 16.1 | 0.00 | 0.00 | 0.00 | 77 | 1006.5 |
| 20260509145835 | 15 | 248 | 3.2 | 19.3 | 0.00 | 0.00 | 0.00 | 79 | 1006.5 |
| 20260509145318 | 15 | 192 | 9.7 | 19.3 | 0.00 | 0.00 | 0.00 | 77 | 1006.6 |
| 20260509144833 | 15 | 178 | 4.8 | 16.1 | 0.00 | 0.00 | 0.00 | 78 | 1006.5 |
| 20260509144338 | 14 | 180 | 6.4 | 17.7 | 0.00 | 0.00 | 0.00 | 78 | 1006.5 |
| 20260509143830 | 14 | 182 | 4.8 | 14.5 | 0.00 | 0.00 | 0.00 | 79 | 1006.5 |
| 20260509143314 | 14 | 152 | 6.4 | 17.7 | 0.00 | 0.00 | 0.00 | 79 | 1006.4 |
| 20260509142831 | 13 | 203 | 8.0 | 24.1 | 0.00 | 0.00 | 0.00 | 79 | 1006.4 |
| 20260509142314 | 13 | 178 | 8.0 | 24.1 | 0.00 | 0.00 | 0.00 | 79 | 1006.5 |
| 20260509141828 | 13 | 192 | 4.8 | 14.5 | 0.00 | 0.00 | 0.00 | 80 | 1006.4 |
| 20260509141331 | 13 | 191 | 4.8 | 14.5 | 0.00 | 0.00 | 0.00 | 81 | 1006.4 |
| 20260509140844 | 13 | 200 | 6.4 | 14.5 | 0.00 | 0.00 | 0.00 | 80 | 1006.4 |
| 20260509140325 | 13 | 200 | 4.8 | 9.7 | 0.00 | 0.00 | 0.00 | 80 | 1006.4 |
| 20260509135817 | 13 | 197 | 4.8 | 11.3 | 0.00 | 0.00 | 0.00 | 81 | 1006.4 |
| 20260509135340 | 13 | 219 | 4.8 | 19.3 | 0.00 | 0.00 | 0.00 | 81 | 1006.5 |
| 20260509134814 | 13 | 181 | 6.4 | 24.1 | 0.00 | 0.00 | 0.00 | 81 | 1006.4 |
| 20260509134337 | 13 | 154 | 8.0 | 19.3 | 0.00 | 0.00 | 0.00 | 80 | 1006.4 |
| 20260509133828 | 13 | 142 | 8.0 | 19.3 | 0.00 | 0.00 | 0.00 | 80 | 1006.4 |
| 20260509133332 | 13 | 109 | 3.2 | 14.5 | 0.00 | 0.00 | 0.00 | 82 | 1006.5 |
| 20260509132824 | 13 | 201 | 9.7 | 14.5 | 0.00 | 0.00 | 0.00 | 81 | 1006.6 |
| 20260509132343 | 13 | 153 | 4.8 | 16.1 | 0.00 | 0.00 | 0.00 | 82 | 1006.6 |
| 20260509131820 | 13 | 165 | 8.0 | 16.1 | 0.00 | 0.00 | 0.00 | 82 | 1006.6 |
| 20260509131314 | 12 | 171 | 4.8 | 14.5 | 0.00 | 0.00 | 0.00 | 83 | 1006.7 |
| 20260509130832 | 12 | 207 | 4.8 | 14.5 | 0.00 | 0.00 | 0.00 | 83 | 1006.7 |
| 20260509130338 | 12 | 178 | 4.8 | 16.1 | 0.00 | 0.00 | 0.00 | 83 | 1006.7 |
| 20260509125830 | 12 | 174 | 3.2 | 16.1 | 0.00 | 0.00 | 0.00 | 84 | 1006.7 |
| 20260509125352 | 12 | 194 | 4.8 | 16.1 | 0.00 | 0.00 | 0.00 | 84 | 1006.8 |
| 20260509124819 | 12 | 175 | 8.0 | 16.1 | 0.00 | 0.00 | 0.00 | 84 | 1007.0 |
| 20260509124322 | 12 | 171 | 4.8 | 12.9 | 0.00 | 0.00 | 0.00 | 85 | 1007.0 |
| 20260509123820 | 12 | 157 | 4.8 | 16.1 | 0.00 | 0.00 | 0.00 | 85 | 1007.0 |
| 20260509123339 | 12 | 121 | 6.4 | 16.1 | 0.00 | 0.00 | 0.00 | 85 | 1007.0 |
| 20260509122815 | 12 | 213 | 6.4 | 16.1 | 0.00 | 0.00 | 0.00 | 85 | 1007.1 |
| 20260509122318 | 12 | 180 | 4.8 | 14.5 | 0.00 | 0.00 | 0.00 | 85 | 1007.1 |
| 20260509121833 | 12 | 187 | 4.8 | 14.5 | 0.00 | 0.00 | 0.00 | 85 | 1007.1 |
| 20260509121313 | 12 | 164 | 6.4 | 14.5 | 0.00 | 0.00 | 0.00 | 85 | 1007.2 |
| 20260509120818 | 12 | 191 | 3.2 | 12.9 | 0.00 | 0.00 | 0.00 | 85 | 1007.1 |
| 20260509120321 | 12 | 171 | 4.8 | 16.1 | 0.00 | 0.00 | 0.00 | 86 | 1007.3 |
| 20260509115818 | 12 | 182 | 8.0 | 16.1 | 0.00 | 0.25 | 0.00 | 85 | 1007.3 |
| 20260509115319 | 12 | 171 | 4.8 | 11.3 | 0.00 | 0.25 | 0.00 | 86 | 1007.2 |
| 20260509114817 | 11 | 182 | 3.2 | 12.9 | 0.00 | 0.25 | 0.00 | 86 | 1007.2 |
| 20260509114321 | 11 | 143 | 3.2 | 12.9 | 0.00 | 0.25 | 0.00 | 86 | 1007.1 |
| 20260509113817 | 11 | 170 | 3.2 | 12.9 | 0.00 | 0.25 | 0.00 | 86 | 1007.2 |
| 20260509113339 | 11 | 201 | 4.8 | 12.9 | 0.00 | 0.25 | 0.00 | 86 | 1007.1 |
| 20260509112815 | 11 | 203 | 4.8 | 12.9 | 0.00 | 0.25 | 0.00 | 86 | 1007.0 |
| 20260509112339 | 11 | 148 | 4.8 | 11.3 | 0.00 | 0.25 | 0.00 | 87 | 1007.0 |
| 20260509111831 | 11 | 175 | 4.8 | 17.7 | 0.00 | 0.25 | 0.00 | 87 | 1007.0 |
| 20260509111354 | 11 | 182 | 4.8 | 17.7 | 0.00 | 0.25 | 0.00 | 87 | 1007.0 |
| 20260509110825 | 11 | 150 | 3.2 | 9.7 | 0.00 | 0.25 | 0.00 | 87 | 1007.0 |
| 20260509110328 | 11 | 115 | 1.6 | 9.7 | 0.00 | 0.25 | 0.00 | 88 | 1007.1 |
| 20260509105842 | 11 | 176 | 3.2 | 8.0 | 0.00 | 0.30 | 0.00 | 88 | 1007.0 |
| 20260509105318 | 11 | 178 | 4.8 | 8.0 | 0.00 | 0.30 | 0.00 | 88 | 1007.0 |
| 20260509104817 | 11 | 140 | 3.2 | 6.4 | 0.00 | 0.30 | 0.00 | 88 | 1007.0 |
| 20260509104340 | 11 | 141 | 3.2 | 9.7 | 0.00 | 0.30 | 0.00 | 88 | 1007.1 |
| 20260509103857 | 11 | 132 | 6.4 | 9.7 | 0.00 | 0.30 | 0.00 | 87 | 1007.1 |
| 20260509103318 | 11 | 169 | 4.8 | 11.3 | 0.00 | 0.30 | 0.00 | 87 | 1007.1 |
| 20260509102815 | 11 | 196 | 3.2 | 11.3 | 0.00 | 0.30 | 0.00 | 87 | 1007.1 |
| 20260509102339 | 11 | 180 | 1.6 | 4.8 | 0.00 | 0.30 | 0.00 | 87 | 1007.1 |
| 20260509101831 | 11 | 185 | 3.2 | 9.7 | 0.00 | 0.30 | 0.00 | 87 | 1007.1 |
| 20260509101334 | 11 | 185 | 3.2 | 9.7 | 0.00 | 0.30 | 0.00 | 87 | 1007.1 |
| 20260509100821 | 11 | 186 | 4.8 | 9.7 | 0.00 | 0.30 | 0.00 | 87 | 1007.1 |
| 20260509100323 | 11 | 206 | 1.6 | 9.7 | 0.00 | 0.30 | 0.00 | 86 | 1007.3 |
| 20260509095841 | 11 | 140 | 3.2 | 12.9 | 0.00 | 0.48 | 0.00 | 86 | 1007.1 |
| 20260509095321 | 11 | 173 | 6.4 | 12.9 | 0.00 | 0.48 | 0.00 | 87 | 1007.2 |
| 20260509094837 | 11 | 221 | 3.2 | 9.7 | 0.00 | 0.48 | 0.00 | 86 | 1007.2 |
| 20260509094339 | 11 | 165 | 1.6 | 9.7 | 0.00 | 0.48 | 0.00 | 86 | 1007.2 |
| 20260509093852 | 11 | 188 | 3.2 | 9.7 | 0.00 | 0.48 | 0.00 | 86 | 1007.2 |
| 20260509093336 | 11 | 194 | 3.2 | 9.7 | 0.00 | 0.48 | 0.00 | 86 | 1007.2 |
| 20260509092828 | 11 | 189 | 3.2 | 8.0 | 0.00 | 0.48 | 0.00 | 86 | 1007.3 |
| 20260509092333 | 11 | 221 | 3.2 | 8.0 | 0.00 | 0.48 | 0.00 | 86 | 1007.3 |
| 20260509091823 | 11 | 175 | 4.8 | 9.7 | 0.00 | 0.48 | 0.00 | 86 | 1007.4 |
| 20260509091347 | 11 | 185 | 3.2 | 9.7 | 0.00 | 0.48 | 0.00 | 86 | 1007.3 |
| 20260509090839 | 11 | 200 | 1.6 | 4.8 | 0.00 | 0.48 | 0.00 | 86 | 1007.3 |
| 20260509090320 | 11 | 207 | 1.6 | 6.4 | 0.00 | 0.48 | 0.00 | 86 | 1007.4 |
| 20260509085836 | 11 | 208 | 1.6 | 6.4 | 0.00 | 0.48 | 0.00 | 86 | 1007.4 |
| 20260509085318 | 11 | 208 | 0.0 | 6.4 | 0.00 | 0.48 | 0.00 | 86 | 1007.4 |
| 20260509084831 | 11 | 208 | 1.6 | 6.4 | 0.00 | 0.48 | 0.00 | 86 | 1007.5 |
| 20260509084335 | 11 | 213 | 0.0 | 8.0 | 0.00 | 0.48 | 0.00 | 86 | 1007.4 |
| 20260509083824 | 11 | 188 | 1.6 | 9.7 | 0.00 | 0.48 | 0.00 | 85 | 1007.4 |
| 20260509083327 | 11 | 188 | 3.2 | 9.7 | 0.00 | 0.48 | 0.00 | 86 | 1007.4 |
| 20260509082827 | 11 | 180 | 3.2 | 8.0 | 0.00 | 0.48 | 0.00 | 86 | 1007.4 |
| 20260509082330 | 11 | 182 | 3.2 | 11.3 | 0.00 | 0.48 | 0.00 | 86 | 1007.4 |
| 20260509081822 | 11 | 181 | 4.8 | 11.3 | 0.00 | 0.48 | 0.00 | 86 | 1007.4 |
| 20260509081341 | 11 | 188 | 1.6 | 8.0 | 0.00 | 0.48 | 0.00 | 86 | 1007.5 |
| 20260509080815 | 11 | 190 | 1.6 | 4.8 | 0.00 | 0.48 | 0.00 | 85 | 1007.4 |
| 20260509080339 | 11 | 162 | 1.6 | 8.0 | 0.00 | 0.48 | 0.00 | 85 | 1007.4 |
| 20260509075830 | 11 | 157 | 3.2 | 8.0 | 0.00 | 0.48 | 0.00 | 85 | 1007.5 |
| 20260509075334 | 11 | 172 | 3.2 | 8.0 | 0.00 | 0.48 | 0.00 | 85 | 1007.6 |
| 20260509074826 | 11 | 181 | 1.6 | 8.0 | 0.00 | 0.48 | 0.00 | 85 | 1007.6 |
| 20260509074345 | 11 | 179 | 3.2 | 8.0 | 0.00 | 0.48 | 0.00 | 85 | 1007.6 |
| 20260509073819 | 11 | 179 | 1.6 | 11.3 | 0.00 | 0.48 | 0.00 | 85 | 1007.7 |
| 20260509073319 | 11 | 191 | 3.2 | 11.3 | 0.00 | 0.48 | 0.00 | 85 | 1007.6 |
| 20260509072832 | 11 | 173 | 1.6 | 6.4 | 0.00 | 0.48 | 0.00 | 85 | 1007.6 |
| 20260509072336 | 11 | 168 | 4.8 | 6.4 | 0.00 | 0.48 | 0.00 | 85 | 1007.7 |